^^
Saratoga-Weather Station Historical Data
Daily Summary for February 18, 2021 Units:  Metric    English   Both
Daily Weekly Monthly Yearly Custom
  High: Low: Average:
Temperature: 29.1 °C 16.4 °C 22.8 °C
Dew Point: 17.3 °C 14.1 °C 15.7 °C
Humidity: 87% 43% 67%
Wind Speed: 14.3km/h 0km/h 3.9km/h
Wind Gust: 20.9km/h - -
Wind- - SSW
Pressure: 1021.7 hPa 1018.3 hPa -
Precipitation: 0.0 mm    
Historical Graphs
 
 
Tabular Data for February 18, 2021
Time Temperature Dew Point Pressure Wind Wind Speed Wind Gust Humidity Rainfall Rate (Hourly) solar
00:02 20.7 °C 16.7 °C 1021.7 hPa Calm   4.8 km/h 78% 0.0 mm 0 W/m2
00:07 20.7 °C 16.7 °C 1021.3 hPa WNW 1.4 km/h 4.8 km/h 78% 0.0 mm 0 W/m2
00:12 20.6 °C 16.6 °C 1021.3 hPa NW 3.2 km/h 9.7 km/h 78% 0.0 mm 0 W/m2
00:17 20.6 °C 16.6 °C 1021.3 hPa WNW 1.4 km/h 3.2 km/h 78% 0.0 mm 0 W/m2
00:22 20.6 °C 16.6 °C 1021.3 hPa WNW 1.4 km/h 9.7 km/h 78% 0.0 mm 0 W/m2
00:27 20.6 °C 16.6 °C 1021.3 hPa WNW 1.4 km/h 11.3 km/h 78% 0.0 mm 0 W/m2
00:32 20.6 °C 16.6 °C 1021.3 hPa WNW 4.7 km/h 4.8 km/h 78% 0.0 mm 0 W/m2
00:37 20.5 °C 16.5 °C 1021.3 hPa WNW 3.2 km/h 11.3 km/h 78% 0.0 mm 0 W/m2
00:42 20.4 °C 16.2 °C 1021.7 hPa WNW 3.2 km/h 14.5 km/h 77% 0.0 mm 0 W/m2
00:47 20.5 °C 16.3 °C 1021.7 hPa NW 3.2 km/h 4.8 km/h 77% 0.0 mm 0 W/m2
00:52 20.5 °C 16.3 °C 1021.3 hPa WNW 1.4 km/h 12.9 km/h 77% 0.0 mm 0 W/m2
00:57 20.5 °C 16.1 °C 1021.7 hPa WNW 4.7 km/h 4.8 km/h 76% 0.0 mm 0 W/m2
01:02 20.4 °C 16 °C 1021.3 hPa West 3.2 km/h 4.8 km/h 76% 0.0 mm 0 W/m2
01:07 20.4 °C 16 °C 1021.3 hPa West 4.7 km/h 6.4 km/h 76% 0.0 mm 0 W/m2
01:12 20.3 °C 15.9 °C 1021.3 hPa West 4.7 km/h 4.8 km/h 76% 0.0 mm 0 W/m2
01:17 20.3 °C 15.9 °C 1021.3 hPa WNW 1.4 km/h 6.4 km/h 76% 0.0 mm 0 W/m2
01:22 20.2 °C 16 °C 1021.3 hPa West 4.7 km/h 6.4 km/h 77% 0.0 mm 0 W/m2
01:27 20.1 °C 15.7 °C 1021.3 hPa WNW 4.7 km/h 8 km/h 76% 0.0 mm 0 W/m2
01:32 20.1 °C 15.7 °C 1021.3 hPa WNW 4.7 km/h 6.4 km/h 76% 0.0 mm 0 W/m2
01:37 20.1 °C 15.7 °C 1021.3 hPa NNW 1.4 km/h 6.4 km/h 76% 0.0 mm 0 W/m2
01:42 20 °C 15.6 °C 1021.3 hPa WSW 7.9 km/h 8 km/h 76% 0.0 mm 0 W/m2
01:47 20 °C 15.6 °C 1021.3 hPa Calm   6.4 km/h 76% 0.0 mm 0 W/m2
01:52 19.9 °C 15.5 °C 1021.3 hPa WNW 1.4 km/h 6.4 km/h 76% 0.0 mm 0 W/m2
01:57 19.8 °C 15.4 °C 1021.3 hPa West 9.7 km/h 9.7 km/h 76% 0.0 mm 0 W/m2
02:02 19.7 °C 15.6 °C 1021.3 hPa West 6.4 km/h 6.4 km/h 77% 0.0 mm 0 W/m2
02:07 19.7 °C 15.6 °C 1021.3 hPa West 1.4 km/h 12.9 km/h 77% 0.0 mm 0 W/m2
02:12 19.6 °C 15.5 °C 1021.3 hPa NW 9.7 km/h 11.3 km/h 77% 0.0 mm 0 W/m2
02:17 19.5 °C 15.4 °C 1021.3 hPa WNW 4.7 km/h 12.9 km/h 77% 0.0 mm 0 W/m2
02:22 19.4 °C 15.3 °C 1021.3 hPa WNW 3.2 km/h 3.2 km/h 77% 0.0 mm 0 W/m2
02:27 19.2 °C 15.3 °C 1021.3 hPa WNW 4.7 km/h 8 km/h 78% 0.0 mm 0 W/m2
02:32 19.2 °C 15.3 °C 1021.3 hPa WNW 1.4 km/h 9.7 km/h 78% 0.0 mm 0 W/m2
02:37 19.1 °C 15.2 °C 1021.3 hPa WNW 4.7 km/h 11.3 km/h 78% 0.0 mm 0 W/m2
02:42 19 °C 15.1 °C 1021.3 hPa WSW 9.7 km/h 12.9 km/h 78% 0.0 mm 0 W/m2
02:47 18.9 °C 15 °C 1021.3 hPa WNW 3.2 km/h 9.7 km/h 78% 0.0 mm 0 W/m2
02:52 18.9 °C 15 °C 1021.3 hPa WNW 3.2 km/h 12.9 km/h 78% 0.0 mm 0 W/m2
02:57 18.8 °C 14.9 °C 1021.3 hPa West 6.4 km/h 12.9 km/h 78% 0.0 mm 0 W/m2
03:02 18.8 °C 14.9 °C 1021.3 hPa NW 4.7 km/h 6.4 km/h 78% 0.0 mm 0 W/m2
03:07 18.7 °C 14.8 °C 1021.3 hPa NNW 3.2 km/h 12.9 km/h 78% 0.0 mm 0 W/m2
03:12 18.6 °C 14.9 °C 1021.3 hPa WSW 3.2 km/h 4.8 km/h 79% 0.0 mm 0 W/m2
03:17 18.5 °C 14.8 °C 1021.3 hPa NW 1.4 km/h 8 km/h 79% 0.0 mm 0 W/m2
03:22 18.4 °C 14.7 °C 1021.3 hPa Calm   9.7 km/h 79% 0.0 mm 0 W/m2
03:27 18.4 °C 14.7 °C 1021.3 hPa West 4.7 km/h 4.8 km/h 79% 0.0 mm 0 W/m2
03:32 18.3 °C 14.6 °C 1021.3 hPa ENE 1.4 km/h 8 km/h 79% 0.0 mm 0 W/m2
03:37 18.2 °C 14.5 °C 1021.3 hPa Calm   1.6 km/h 79% 0.0 mm 0 W/m2
03:42 18.1 °C 14.6 °C 1021.3 hPa West 1.4 km/h 8 km/h 80% 0.0 mm 0 W/m2
03:47 17.9 °C 14.6 °C 1021.3 hPa Calm   3.2 km/h 81% 0.0 mm 0 W/m2
03:52 17.8 °C 14.7 °C 1021.3 hPa Calm     82% 0.0 mm 0 W/m2
03:57 17.6 °C 14.5 °C 1021.3 hPa Calm     82% 0.0 mm 0 W/m2
04:03 17.3 °C 14.4 °C 1021.3 hPa Calm   4.8 km/h 83% 0.0 mm 0 W/m2
04:08 17.2 °C 14.5 °C 1021.3 hPa South 3.2 km/h 3.2 km/h 84% 0.0 mm 0 W/m2
04:13 17.1 °C 14.4 °C 1021.3 hPa SSE 3.2 km/h 6.4 km/h 84% 0.0 mm 0 W/m2
04:18 17.1 °C 14.4 °C 1021.3 hPa Calm   1.6 km/h 84% 0.0 mm 0 W/m2
04:23 17.1 °C 14.4 °C 1021.3 hPa East 1.4 km/h 4.8 km/h 84% 0.0 mm 0 W/m2
04:28 16.9 °C 14.2 °C 1021.3 hPa ENE 1.4 km/h 3.2 km/h 84% 0.0 mm 0 W/m2
04:33 16.8 °C 14.3 °C 1021.3 hPa WNW 3.2 km/h 8 km/h 85% 0.0 mm 0 W/m2
04:38 16.9 °C 14.4 °C 1021.3 hPa West 3.2 km/h 9.7 km/h 85% 0.0 mm 0 W/m2
04:43 17.1 °C 14.4 °C 1021.3 hPa WNW 3.2 km/h 8 km/h 84% 0.0 mm 0 W/m2
04:48 17.2 °C 14.5 °C 1021.3 hPa West 1.4 km/h 3.2 km/h 84% 0.0 mm 0 W/m2
04:53 17.2 °C 14.3 °C 1021.3 hPa West 1.4 km/h 6.4 km/h 83% 0.0 mm 0 W/m2
04:58 17.1 °C 14.4 °C 1021.3 hPa NNW 1.4 km/h 4.8 km/h 84% 0.0 mm 0 W/m2
05:03 17.1 °C 14.4 °C 1021.3 hPa SSW 3.2 km/h 4.8 km/h 84% 0.0 mm 0 W/m2
05:08 16.9 °C 14.4 °C 1021.3 hPa Calm   3.2 km/h 85% 0.0 mm 0 W/m2
05:13 16.8 °C 14.3 °C 1021.0 hPa WSW 1.4 km/h 4.8 km/h 85% 0.0 mm 0 W/m2
05:18 16.8 °C 14.3 °C 1021.0 hPa WNW 1.4 km/h 4.8 km/h 85% 0.0 mm 0 W/m2
05:23 16.8 °C 14.3 °C 1021.0 hPa West 3.2 km/h 3.2 km/h 85% 0.0 mm 0 W/m2
05:28 16.7 °C 14.2 °C 1021.3 hPa South 3.2 km/h 3.2 km/h 85% 0.0 mm 0 W/m2
05:33 16.7 °C 14.3 °C 1021.0 hPa Calm   3.2 km/h 86% 0.0 mm 0 W/m2
05:38 16.5 °C 14.1 °C 1021.0 hPa WNW 3.2 km/h 6.4 km/h 86% 0.0 mm 0 W/m2
05:43 16.4 °C 14.2 °C 1021.0 hPa Calm   4.8 km/h 87% 0.0 mm 0 W/m2
05:48 16.4 °C 14.2 °C 1021.0 hPa NW 1.4 km/h 6.4 km/h 87% 0.0 mm 0 W/m2
05:53 16.5 °C 14.3 °C 1021.0 hPa West 4.7 km/h 11.3 km/h 87% 0.0 mm 5 W/m2
05:58 16.7 °C 14.5 °C 1021.0 hPa WNW 4.7 km/h 6.4 km/h 87% 0.0 mm 7 W/m2
06:03 16.7 °C 14.3 °C 1021.0 hPa WSW 1.4 km/h 3.2 km/h 86% 0.0 mm 9 W/m2
06:08 16.8 °C 14.4 °C 1021.0 hPa West 1.4 km/h 4.8 km/h 86% 0.0 mm 12 W/m2
06:13 16.7 °C 14.3 °C 1021.0 hPa NNE 1.4 km/h 3.2 km/h 86% 0.0 mm 14 W/m2
06:18 16.7 °C 14.3 °C 1021.0 hPa East 1.4 km/h 1.6 km/h 86% 0.0 mm 16 W/m2
06:23 16.7 °C 14.5 °C 1021.0 hPa Calm   6.4 km/h 87% 0.0 mm 19 W/m2
06:28 16.6 °C 14.4 °C 1021.0 hPa Calm   4.8 km/h 87% 0.0 mm 21 W/m2
06:33 16.6 °C 14.4 °C 1021.0 hPa Calm   6.4 km/h 87% 0.0 mm 23 W/m2
06:38 16.6 °C 14.4 °C 1021.0 hPa NNW 3.2 km/h 9.7 km/h 87% 0.0 mm 26 W/m2
06:43 16.6 °C 14.4 °C 1021.0 hPa NNW 3.2 km/h 4.8 km/h 87% 0.0 mm 28 W/m2
06:48 16.6 °C 14.4 °C 1021.0 hPa NNE 4.7 km/h 9.7 km/h 87% 0.0 mm 28 W/m2
06:53 16.7 °C 14.5 °C 1021.0 hPa SSE 1.4 km/h 8 km/h 87% 0.0 mm 30 W/m2
06:58 16.7 °C 14.5 °C 1021.3 hPa NNW 3.2 km/h 9.7 km/h 87% 0.0 mm 32 W/m2
07:03 16.8 °C 14.6 °C 1021.3 hPa NE 1.4 km/h 6.4 km/h 87% 0.0 mm 32 W/m2
07:08 16.8 °C 14.6 °C 1021.3 hPa West 1.4 km/h 8 km/h 87% 0.0 mm 33 W/m2
07:13 16.9 °C 14.7 °C 1021.3 hPa ESE 1.4 km/h 3.2 km/h 87% 0.0 mm 33 W/m2
07:18 16.9 °C 14.7 °C 1021.3 hPa ENE 4.7 km/h 8 km/h 87% 0.0 mm 35 W/m2
07:23 16.9 °C 14.7 °C 1021.3 hPa NNE 3.2 km/h 6.4 km/h 87% 0.0 mm 37 W/m2
07:28 17.1 °C 14.9 °C 1021.3 hPa ENE 1.4 km/h 4.8 km/h 87% 0.0 mm 37 W/m2
07:33 17.1 °C 14.9 °C 1021.3 hPa ENE 4.7 km/h 8 km/h 87% 0.0 mm 39 W/m2
07:38 17.2 °C 15 °C 1021.3 hPa NW 3.2 km/h 6.4 km/h 87% 0.0 mm 39 W/m2
07:43 17.2 °C 15 °C 1021.3 hPa NW 7.9 km/h 8 km/h 87% 0.0 mm 40 W/m2
07:48 17.3 °C 15.1 °C 1021.3 hPa WNW 11.1 km/h 12.9 km/h 87% 0.0 mm 42 W/m2
07:53 17.4 °C 15 °C 1021.3 hPa NNE 4.7 km/h 9.7 km/h 86% 0.0 mm 67 W/m2
07:58 17.5 °C 15.1 °C 1021.3 hPa NW 1.4 km/h 9.7 km/h 86% 0.0 mm 202 W/m2
08:03 17.7 °C 15.3 °C 1021.3 hPa NW 7.9 km/h 8 km/h 86% 0.0 mm 206 W/m2
08:08 17.9 °C 15.5 °C 1021.3 hPa ENE 9.7 km/h 9.7 km/h 86% 0.0 mm 98 W/m2
08:13 18.2 °C 15.5 °C 1021.3 hPa NE 1.4 km/h 9.7 km/h 84% 0.0 mm 53 W/m2
08:18 18.4 °C 15.6 °C 1021.3 hPa WSW 3.2 km/h 4.8 km/h 84% 0.0 mm 51 W/m2
08:23 18.6 °C 15.8 °C 1021.3 hPa NW 1.4 km/h 8 km/h 84% 0.0 mm 51 W/m2
08:28 18.6 °C 15.7 °C 1021.3 hPa North 7.9 km/h 8 km/h 83% 0.0 mm 51 W/m2
08:33 18.8 °C 15.9 °C 1021.7 hPa North 4.7 km/h 8 km/h 83% 0.0 mm 49 W/m2
08:38 18.8 °C 15.9 °C 1021.7 hPa ENE 1.4 km/h 6.4 km/h 83% 0.0 mm 51 W/m2
08:43 19 °C 15.9 °C 1021.7 hPa East 1.4 km/h 9.7 km/h 82% 0.0 mm 49 W/m2
08:48 19.2 °C 15.9 °C 1021.3 hPa SSE 3.2 km/h 8 km/h 81% 0.0 mm 51 W/m2
08:53 19.4 °C 15.9 °C 1021.7 hPa ENE 7.9 km/h 9.7 km/h 80% 0.0 mm 51 W/m2
08:58 19.6 °C 15.9 °C 1021.7 hPa North 4.7 km/h 8 km/h 79% 0.0 mm 51 W/m2
09:03 19.6 °C 16.1 °C 1021.7 hPa WSW 1.4 km/h 9.7 km/h 80% 0.0 mm 107 W/m2
09:08 19.7 °C 16 °C 1021.7 hPa NE 1.4 km/h 11.3 km/h 79% 0.0 mm 283 W/m2
09:13 19.9 °C 16.1 °C 1021.7 hPa ENE 3.2 km/h 8 km/h 79% 0.0 mm 415 W/m2
09:18 20.1 °C 15.9 °C 1021.7 hPa NNW 3.2 km/h 8 km/h 77% 0.0 mm 445 W/m2
09:23 20.2 °C 15.8 °C 1021.7 hPa NNE 4.7 km/h 9.7 km/h 76% 0.0 mm 459 W/m2
09:28 20.3 °C 15.9 °C 1021.7 hPa NE 3.2 km/h 9.7 km/h 76% 0.0 mm 475 W/m2
09:33 20.5 °C 15.9 °C 1021.7 hPa NNE 1.4 km/h 6.4 km/h 75% 0.0 mm 489 W/m2
09:38 20.6 °C 15.8 °C 1021.7 hPa NNW 6.4 km/h 8 km/h 74% 0.0 mm 504 W/m2
09:43 20.8 °C 15.8 °C 1021.7 hPa ENE 1.4 km/h 6.4 km/h 73% 0.0 mm 519 W/m2
09:48 21 °C 16 °C 1021.7 hPa SE 4.7 km/h 11.3 km/h 73% 0.0 mm 536 W/m2
09:53 21.1 °C 15.9 °C 1021.7 hPa Calm   8 km/h 72% 0.0 mm 545 W/m2
09:58 21.3 °C 15.8 °C 1021.7 hPa South 1.4 km/h 4.8 km/h 71% 0.0 mm 563 W/m2
10:03 21.4 °C 15.5 °C 1021.3 hPa ENE 4.7 km/h 14.5 km/h 69% 0.0 mm 464 W/m2
10:08 21.5 °C 16 °C 1021.3 hPa NE 6.4 km/h 8 km/h 71% 0.0 mm 47 W/m2
10:13 21.7 °C 15.8 °C 1021.3 hPa North 6.4 km/h 14.5 km/h 69% 0.0 mm 596 W/m2
10:18 21.7 °C 15.5 °C 1021.3 hPa WNW 1.4 km/h 17.7 km/h 68% 0.0 mm 606 W/m2
10:23 21.8 °C 15.6 °C 1021.3 hPa NE 4.7 km/h 11.3 km/h 68% 0.0 mm 619 W/m2
10:28 21.9 °C 15.7 °C 1021.3 hPa NW 1.4 km/h 4.8 km/h 68% 0.0 mm 635 W/m2
10:33 22.1 °C 15.9 °C 1021.3 hPa SSE 6.4 km/h 11.3 km/h 68% 0.0 mm 647 W/m2
10:39 22.3 °C 15.9 °C 1021.3 hPa WNW 6.4 km/h 12.9 km/h 67% 0.0 mm 657 W/m2
10:44 22.2 °C 15.8 °C 1021.3 hPa NNW 9.7 km/h 17.7 km/h 67% 0.0 mm 670 W/m2
10:49 22.3 °C 15.9 °C 1021.3 hPa East 3.2 km/h 14.5 km/h 67% 0.0 mm 682 W/m2
10:54 22.6 °C 15.7 °C 1021.3 hPa ENE 1.4 km/h 8 km/h 65% 0.0 mm 693 W/m2
10:59 22.7 °C 15.8 °C 1021.3 hPa NW 4.7 km/h 11.3 km/h 65% 0.0 mm 701 W/m2
11:04 22.9 °C 16 °C 1021.3 hPa ENE 7.9 km/h 12.9 km/h 65% 0.0 mm 715 W/m2
11:09 23.1 °C 15.9 °C 1021.3 hPa NE 3.2 km/h 12.9 km/h 64% 0.0 mm 726 W/m2
11:14 23.3 °C 15.9 °C 1021.3 hPa NW 6.4 km/h 19.3 km/h 63% 0.0 mm 733 W/m2
11:19 23.3 °C 16.1 °C 1021.3 hPa NNW 4.7 km/h 6.4 km/h 64% 0.0 mm 747 W/m2
11:24 23.4 °C 15.7 °C 1021.3 hPa South 3.2 km/h 20.9 km/h 62% 0.0 mm 756 W/m2
11:29 23.6 °C 15.9 °C 1021.3 hPa SE 6.4 km/h 16.1 km/h 62% 0.0 mm 768 W/m2
11:34 23.7 °C 16 °C 1021.3 hPa WNW 6.4 km/h 9.7 km/h 62% 0.0 mm 770 W/m2
11:39 23.7 °C 16 °C 1021.3 hPa NNW 9.7 km/h 16.1 km/h 62% 0.0 mm 777 W/m2
11:44 23.8 °C 16.3 °C 1021.3 hPa North 7.9 km/h 12.9 km/h 63% 0.0 mm 793 W/m2
11:49 24.2 °C 16.2 °C 1021.3 hPa WNW 1.4 km/h 12.9 km/h 61% 0.0 mm 800 W/m2
11:54 24.2 °C 15.9 °C 1021.3 hPa NW 9.7 km/h 16.1 km/h 60% 0.0 mm 803 W/m2
11:59 24.2 °C 15.7 °C 1021.0 hPa WNW 11.1 km/h 11.3 km/h 59% 0.0 mm 810 W/m2
12:04 24.2 °C 15.9 °C 1021.3 hPa SSW 3.2 km/h 9.7 km/h 60% 0.0 mm 817 W/m2
12:09 24.3 °C 16 °C 1021.0 hPa East 1.4 km/h 8 km/h 60% 0.0 mm 823 W/m2
12:14 24.4 °C 15.3 °C 1021.0 hPa NW 6.4 km/h 17.7 km/h 57% 0.0 mm 838 W/m2
12:19 24.5 °C 15.7 °C 1021.0 hPa NNW 6.4 km/h 19.3 km/h 58% 0.0 mm 842 W/m2
12:24 24.6 °C 16.1 °C 1021.0 hPa NNW 7.9 km/h 17.7 km/h 59% 0.0 mm 840 W/m2
12:29 24.7 °C 15.6 °C 1020.7 hPa North 3.2 km/h 19.3 km/h 57% 0.0 mm 851 W/m2
12:34 24.9 °C 15.8 °C 1021.0 hPa East 4.7 km/h 16.1 km/h 57% 0.0 mm 856 W/m2
12:39 25.1 °C 15.7 °C 1021.0 hPa NE 14.3 km/h 14.5 km/h 56% 0.0 mm 861 W/m2
12:44 25.2 °C 15.8 °C 1020.7 hPa East 13 km/h 12.9 km/h 56% 0.0 mm 877 W/m2
12:49 25.3 °C 15.9 °C 1020.7 hPa NNW 6.4 km/h 11.3 km/h 56% 0.0 mm 877 W/m2
12:54 25.4 °C 16 °C 1020.7 hPa NW 3.2 km/h 11.3 km/h 56% 0.0 mm 884 W/m2
12:59 25.5 °C 16.1 °C 1020.7 hPa NE 6.4 km/h 16.1 km/h 56% 0.0 mm 889 W/m2
13:04 25.6 °C 16.2 °C 1020.7 hPa ENE 7.9 km/h 16.1 km/h 56% 0.0 mm 891 W/m2
13:09 25.8 °C 16.1 °C 1020.7 hPa ESE 3.2 km/h 17.7 km/h 55% 0.0 mm 898 W/m2
13:14 25.9 °C 16.2 °C 1020.7 hPa West 1.4 km/h 8 km/h 55% 0.0 mm 895 W/m2
13:19 26.1 °C 16.1 °C 1020.7 hPa ENE 7.9 km/h 16.1 km/h 54% 0.0 mm 898 W/m2
13:24 26.1 °C 16.4 °C 1020.7 hPa ENE 3.2 km/h 12.9 km/h 55% 0.0 mm 904 W/m2
13:29 26.2 °C 15.9 °C 1020.7 hPa ESE 6.4 km/h 11.3 km/h 53% 0.0 mm 907 W/m2
13:34 26.3 °C 16.5 °C 1020.3 hPa ENE 7.9 km/h 9.7 km/h 55% 0.0 mm 902 W/m2
13:39 26.3 °C 16.2 °C 1020.3 hPa NE 3.2 km/h 12.9 km/h 54% 0.0 mm 900 W/m2
13:44 26.4 °C 16.9 °C 1020.3 hPa NNW 3.2 km/h 6.4 km/h 56% 0.0 mm 895 W/m2
13:49 26.6 °C 16.8 °C 1020.3 hPa ENE 1.4 km/h 9.7 km/h 55% 0.0 mm 902 W/m2
13:54 26.5 °C 16.7 °C 1020.3 hPa NE 9.7 km/h 16.1 km/h 55% 0.0 mm 895 W/m2
13:59 26.6 °C 16.8 °C 1020.3 hPa NNE 3.2 km/h 6.4 km/h 55% 0.0 mm 896 W/m2
14:04 26.7 °C 17.2 °C 1020.0 hPa NE 1.4 km/h 16.1 km/h 56% 0.0 mm 896 W/m2
14:09 26.9 °C 17.1 °C 1020.0 hPa Calm   6.4 km/h 55% 0.0 mm 902 W/m2
14:14 27.2 °C 16.8 °C 1020.0 hPa ENE 4.7 km/h 9.7 km/h 53% 0.0 mm 891 W/m2
14:19 27.2 °C 16.5 °C 1020.0 hPa ENE 11.1 km/h 11.3 km/h 52% 0.0 mm 891 W/m2
14:24 27.1 °C 16.7 °C 1020.0 hPa WNW 7.9 km/h 12.9 km/h 53% 0.0 mm 888 W/m2
14:29 27.2 °C 16.2 °C 1020.0 hPa ENE 6.4 km/h 14.5 km/h 51% 0.0 mm 881 W/m2
14:34 27.2 °C 17.1 °C 1020.0 hPa ENE 4.7 km/h 4.8 km/h 54% 0.0 mm 888 W/m2
14:39 27.3 °C 17.2 °C 1019.6 hPa NE 6.4 km/h 17.7 km/h 54% 0.0 mm 874 W/m2
14:44 27.4 °C 16.4 °C 1019.6 hPa ESE 1.4 km/h 14.5 km/h 51% 0.0 mm 884 W/m2
14:49 27.4 °C 16.7 °C 1019.6 hPa WNW 4.7 km/h 17.7 km/h 52% 0.0 mm 872 W/m2
14:54 27.6 °C 16.6 °C 1019.6 hPa East 3.2 km/h 16.1 km/h 51% 0.0 mm 872 W/m2
14:59 27.6 °C 16.6 °C 1019.6 hPa NNW 6.4 km/h 14.5 km/h 51% 0.0 mm 874 W/m2
15:04 27.7 °C 16.9 °C 1019.6 hPa NE 3.2 km/h 16.1 km/h 52% 0.0 mm 861 W/m2
15:09 27.7 °C 16.9 °C 1019.6 hPa NW 4.7 km/h 14.5 km/h 52% 0.0 mm 856 W/m2
15:14 27.9 °C 16.5 °C 1019.6 hPa ENE 3.2 km/h 17.7 km/h 50% 0.0 mm 861 W/m2
15:19 27.9 °C 16.5 °C 1019.6 hPa ENE 6.4 km/h 9.7 km/h 50% 0.0 mm 847 W/m2
15:24 28 °C 16.9 °C 1019.3 hPa WNW 3.2 km/h 9.7 km/h 51% 0.0 mm 837 W/m2
15:29 28.1 °C 16.1 °C 1019.3 hPa WNW 3.2 km/h 8 km/h 48% 0.0 mm 844 W/m2
15:34 28.1 °C 16.4 °C 1019.3 hPa South 1.4 km/h 12.9 km/h 49% 0.0 mm 828 W/m2
15:39 28.2 °C 16.8 °C 1019.3 hPa North 3.2 km/h 6.4 km/h 50% 0.0 mm 816 W/m2
15:44 28.3 °C 17.2 °C 1019.3 hPa NNW 1.4 km/h 9.7 km/h 51% 0.0 mm 814 W/m2
15:49 28.2 °C 16.8 °C 1019.3 hPa NNW 9.7 km/h 14.5 km/h 50% 0.0 mm 809 W/m2
15:54 28.3 °C 16.9 °C 1019.3 hPa SSE 3.2 km/h 11.3 km/h 50% 0.0 mm 795 W/m2
15:59 28.3 °C 16.6 °C 1019.0 hPa NNE 4.7 km/h 12.9 km/h 49% 0.0 mm 786 W/m2
16:04 28.4 °C 17 °C 1019.3 hPa SE 3.2 km/h 9.7 km/h 50% 0.0 mm 772 W/m2
16:09 28.4 °C 16.3 °C 1019.0 hPa West 4.7 km/h 19.3 km/h 48% 0.0 mm 765 W/m2
16:14 28.4 °C 17.3 °C 1019.0 hPa WNW 4.7 km/h 9.7 km/h 51% 0.0 mm 766 W/m2
16:19 28.6 °C 17.2 °C 1019.0 hPa ENE 7.9 km/h 17.7 km/h 50% 0.0 mm 751 W/m2
16:24 28.6 °C 16.5 °C 1019.0 hPa ESE 4.7 km/h 11.3 km/h 48% 0.0 mm 745 W/m2
16:29 28.6 °C 16.2 °C 1019.0 hPa NNW 3.2 km/h 9.7 km/h 47% 0.0 mm 737 W/m2
16:34 28.5 °C 15.8 °C 1019.0 hPa West 4.7 km/h 12.9 km/h 46% 0.0 mm 728 W/m2
16:39 28.4 °C 15.7 °C 1019.0 hPa NW 6.4 km/h 14.5 km/h 46% 0.0 mm 719 W/m2
16:44 28.3 °C 16.2 °C 1019.0 hPa North 4.7 km/h 11.3 km/h 48% 0.0 mm 707 W/m2
16:49 28.4 °C 16.7 °C 1019.0 hPa NW 3.2 km/h 9.7 km/h 49% 0.0 mm 693 W/m2
16:54 28.6 °C 16.5 °C 1019.0 hPa SW 1.4 km/h 4.8 km/h 48% 0.0 mm 686 W/m2
16:59 28.9 °C 15.8 °C 1019.0 hPa WSW 3.2 km/h 8 km/h 45% 0.0 mm 677 W/m2
17:04 29.1 °C 16.3 °C 1019.0 hPa NNE 7.9 km/h 16.1 km/h 46% 0.0 mm 663 W/m2
17:09 29.1 °C 16 °C 1019.0 hPa NNW 1.4 km/h 6.4 km/h 45% 0.0 mm 657 W/m2
17:14 29.1 °C 15.2 °C 1019.0 hPa WNW 6.4 km/h 17.7 km/h 43% 0.0 mm 643 W/m2
17:19 29.1 °C 15.2 °C 1019.0 hPa East 4.7 km/h 11.3 km/h 43% 0.0 mm 629 W/m2
17:24 29 °C 15.5 °C 1019.0 hPa West 13 km/h 16.1 km/h 44% 0.0 mm 613 W/m2
17:29 28.8 °C 15.7 °C 1019.0 hPa West 9.7 km/h 12.9 km/h 45% 0.0 mm 599 W/m2
17:34 28.8 °C 15.7 °C 1018.6 hPa NNE 3.2 km/h 8 km/h 45% 0.0 mm 582 W/m2
17:39 28.8 °C 15.7 °C 1018.6 hPa NE 3.2 km/h 8 km/h 45% 0.0 mm 571 W/m2
17:44 28.8 °C 15.7 °C 1018.6 hPa WSW 1.4 km/h 9.7 km/h 45% 0.0 mm 559 W/m2
17:49 28.9 °C 15.4 °C 1018.6 hPa SW 3.2 km/h 14.5 km/h 44% 0.0 mm 543 W/m2
17:54 28.8 °C 16 °C 1018.6 hPa WSW 4.7 km/h 12.9 km/h 46% 0.0 mm 533 W/m2
17:59 28.8 °C 16 °C 1018.6 hPa WSW 1.4 km/h 6.4 km/h 46% 0.0 mm 519 W/m2
18:04 28.7 °C 15.6 °C 1018.6 hPa ESE 1.4 km/h 12.9 km/h 45% 0.0 mm 501 W/m2
18:09 28.7 °C 16.3 °C 1018.3 hPa North 7.9 km/h 12.9 km/h 47% 0.0 mm 492 W/m2
18:14 28.8 °C 16 °C 1018.6 hPa NE 3.2 km/h 4.8 km/h 46% 0.0 mm 478 W/m2
18:19 28.8 °C 16 °C 1018.6 hPa SE 1.4 km/h 8 km/h 46% 0.0 mm 462 W/m2
18:24 28.8 °C 16.4 °C 1018.3 hPa West 4.7 km/h 8 km/h 47% 0.0 mm 452 W/m2
18:29 28.6 °C 15.8 °C 1018.3 hPa NNW 6.4 km/h 9.7 km/h 46% 0.0 mm 434 W/m2
18:34 28.6 °C 15.5 °C 1018.3 hPa NNW 9.7 km/h 9.7 km/h 45% 0.0 mm 410 W/m2
18:39 28.5 °C 15.8 °C 1018.6 hPa SSE 3.2 km/h 8 km/h 46% 0.0 mm 381 W/m2
18:44 28.4 °C 15.3 °C 1018.6 hPa ENE 7.9 km/h 16.1 km/h 45% 0.0 mm 345 W/m2
18:49 28.4 °C 15.3 °C 1018.3 hPa NE 7.9 km/h 11.3 km/h 45% 0.0 mm 325 W/m2
18:54 28.3 °C 15.2 °C 1018.3 hPa North 6.4 km/h 11.3 km/h 45% 0.0 mm 302 W/m2
18:59 28.3 °C 15.9 °C 1018.3 hPa SW 1.4 km/h 4.8 km/h 47% 0.0 mm 283 W/m2
19:04 28.3 °C 15.9 °C 1018.3 hPa NW 11.1 km/h 11.3 km/h 47% 0.0 mm 253 W/m2
19:09 28.4 °C 16 °C 1018.3 hPa NE 3.2 km/h 9.7 km/h 47% 0.0 mm 232 W/m2
19:14 28.3 °C 15.9 °C 1018.3 hPa North 7.9 km/h 9.7 km/h 47% 0.0 mm 223 W/m2
19:19 28.1 °C 15.7 °C 1018.3 hPa ENE 1.4 km/h 4.8 km/h 47% 0.0 mm 232 W/m2
19:24 28.1 °C 16.1 °C 1018.3 hPa North 1.4 km/h 6.4 km/h 48% 0.0 mm 243 W/m2
19:29 27.9 °C 15.9 °C 1018.3 hPa East 6.4 km/h 12.9 km/h 48% 0.0 mm 243 W/m2
19:34 27.9 °C 16.2 °C 1018.6 hPa NE 1.4 km/h 12.9 km/h 49% 0.0 mm 236 W/m2
19:39 27.8 °C 16.4 °C 1018.6 hPa North 9.7 km/h 12.9 km/h 50% 0.0 mm 221 W/m2
19:44 27.7 °C 16.3 °C 1018.6 hPa NW 1.4 km/h 6.4 km/h 50% 0.0 mm 209 W/m2
19:49 27.6 °C 16.2 °C 1018.6 hPa SW 1.4 km/h 12.9 km/h 50% 0.0 mm 188 W/m2
19:55 27.5 °C 16.1 °C 1018.6 hPa NNW 3.2 km/h 9.7 km/h 50% 0.0 mm 160 W/m2
20:00 27.4 °C 16.4 °C 1018.6 hPa WNW 1.4 km/h 4.8 km/h 51% 0.0 mm 139 W/m2
20:05 27.3 °C 16.3 °C 1018.6 hPa North 3.2 km/h 8 km/h 51% 0.0 mm 130 W/m2
20:10 27.1 °C 16.4 °C 1018.6 hPa SW 4.7 km/h 8 km/h 52% 0.0 mm 125 W/m2
20:15 27.1 °C 16.7 °C 1018.6 hPa NW 1.4 km/h 6.4 km/h 53% 0.0 mm 116 W/m2
20:20 27 °C 16.6 °C 1018.6 hPa NNW 3.2 km/h 3.2 km/h 53% 0.0 mm 104 W/m2
20:25 26.9 °C 16.5 °C 1018.6 hPa SSE 3.2 km/h 6.4 km/h 53% 0.0 mm 91 W/m2
20:30 26.7 °C 16.3 °C 1018.6 hPa SSE 3.2 km/h 6.4 km/h 53% 0.0 mm 77 W/m2
20:35 26.6 °C 16.2 °C 1018.6 hPa SE 3.2 km/h 6.4 km/h 53% 0.0 mm 69 W/m2
20:40 26.3 °C 16.5 °C 1019.0 hPa WNW 1.4 km/h 11.3 km/h 55% 0.0 mm 62 W/m2
20:45 26.2 °C 16.4 °C 1018.6 hPa NNE 3.2 km/h 4.8 km/h 55% 0.0 mm 49 W/m2
20:50 26.1 °C 16.6 °C 1019.0 hPa NNW 7.9 km/h 9.7 km/h 56% 0.0 mm 42 W/m2
20:55 25.9 °C 16.4 °C 1019.0 hPa West 1.4 km/h 4.8 km/h 56% 0.0 mm 37 W/m2
21:00 25.8 °C 16.6 °C 1019.0 hPa NE 1.4 km/h 4.8 km/h 57% 0.0 mm 32 W/m2
21:05 25.6 °C 16.7 °C 1019.0 hPa Calm   3.2 km/h 58% 0.0 mm 28 W/m2
21:10 25.5 °C 16.9 °C 1019.0 hPa WSW 1.4 km/h 3.2 km/h 59% 0.0 mm 23 W/m2
21:15 25.3 °C 17 °C 1019.0 hPa Calm   3.2 km/h 60% 0.0 mm 16 W/m2
Juneau County Weather
Compliments of Weather Underground - 2 mb